Overview Statistics Trail Chart Weather Telemetry Raw packets
 

This is the latest recevied weather packets stored in our database for station/object KF6RAL-6. If no packets are shown the sender has not sent any weather packets the latest 10 day(s).

<< 26 27 28 29 30 31 32 >>
Time Temp. Humidity Pressure Rain* Wind** Luminosity Snow
1788424367 17.78° C 42% 1011.4 hPa 0 mm - - -
1788423946 18.33° C 37% 1011.4 hPa 0 mm - - -
1788423526 19.44° C 35% 1012 hPa 0 mm - - -
1788423104 19.44° C 33% 1011.9 hPa 0 mm - - -
1788422683 19.44° C 34% 1011.9 hPa 0 mm - - -
1788422263 19.44° C 33% 1011.8 hPa 0 mm - - -
1788421841 19.44° C 39% 1011.3 hPa 0 mm - - -
1788421422 19.44° C 34% 1011.3 hPa 0 mm - - -
1788420999 18.89° C 34% 1011.2 hPa 0 mm - - -
1788420578 18.89° C 34% 1011.1 hPa 0 mm - - -
1788420157 18.89° C 37% 1011.1 hPa 0 mm - - -
1788419736 19.44° C 37% 1011 hPa 0 mm - - -
1788419315 19.44° C 37% 1011 hPa 0 mm - - -
1788418894 20° C 37% 1011.4 hPa 0 mm - - -
1788418473 20.56° C 31% 1011.4 hPa 0 mm - - -
1788418052 21.11° C 31% 1011.5 hPa 0 mm - - -
1788417631 21.11° C 31% 1011.5 hPa 0 mm - - -
1788417215 21.67° C 28% 1011.2 hPa 0 mm - - -
1788416790 21.67° C 34% 1011.1 hPa 0 mm - - -
1788416368 22.22° C 36% 1010.9 hPa 0 mm - - -
1788415947 22.22° C 36% 1010.4 hPa 0 mm - - -
1788415526 22.78° C 36% 1010.5 hPa 0 mm - - -
1788415105 23.33° C 35% 1010.4 hPa 0 mm - - -
1788414685 23.33° C 32% 1010.3 hPa 0 mm - - -
1788414266 23.33° C 31% 1010.3 hPa 0 mm - - -

* Rain latest hour (hover to see other rain measurements)
** Current wind speed in m/s (hover to see current wind gust speed)